Time,TemperatureF,DewpointF,PressureIn,WindDirection,WindDirectionDegrees,WindSpeedMPH,WindSpeedGustMPH,Humidity,HourlyPrecipIn,Conditions,Clouds,dailyrainin,SoftwareType,DateUTC
2013-01-01 00:03:00,40.0,-99.9,29.81,West,277,9.0,13.0,-999,-99.99,,,-99.99,,2013-01-01 05:03:00,
2013-01-01 00:12:00,40.0,-99.9,29.81,WNW,286,10.0,17.0,-999,-99.99,,,-99.99,,2013-01-01 05:12:00,
2013-01-01 00:22:00,40.0,-99.9,29.80,WNW,282,12.0,18.0,-999,-99.99,,,-99.99,,2013-01-01 05:22:00,
2013-01-01 00:33:00,40.0,-99.9,29.81,WNW,285,12.0,18.0,-999,-99.99,,,-99.99,,2013-01-01 05:33:00,
2013-01-01 00:42:00,40.0,-99.9,29.81,West,281,11.0,25.0,-999,-99.99,,,-99.99,,2013-01-01 05:42:00,
2013-01-01 00:53:00,40.0,-99.9,29.80,WNW,284,11.0,26.0,-999,-99.99,,,-99.99,,2013-01-01 05:53:00,
2013-01-01 01:02:00,39.0,-99.9,29.81,WNW,285,15.0,30.0,-999,-99.99,,,-99.99,,2013-01-01 06:02:00,
2013-01-01 01:12:00,39.0,-99.9,29.81,WNW,286,13.0,26.0,-999,-99.99,,,-99.99,,2013-01-01 06:12:00,
2013-01-01 01:22:00,38.0,-99.9,29.80,West,277,15.0,21.0,-999,-99.99,,,-99.99,,2013-01-01 06:22:00,
2013-01-01 01:33:00,38.0,-99.9,29.80,West,277,11.0,21.0,-999,-99.99,,,-99.99,,2013-01-01 06:33:00,
2013-01-01 01:43:00,39.0,-99.9,29.80,West,263,7.0,23.0,-999,-99.99,,,-99.99,,2013-01-01 06:43:00,
2013-01-01 01:52:00,38.0,-99.9,29.80,West,267,11.0,21.0,-999,-99.99,,,-99.99,,2013-01-01 06:52:00,
2013-01-01 02:02:00,38.0,-99.9,29.80,WSW,258,6.0,16.0,-999,-99.99,,,-99.99,,2013-01-01 07:02:00,
2013-01-01 02:12:00,38.0,-99.9,29.79,West,270,8.0,16.0,-999,-99.99,,,-99.99,,2013-01-01 07:12:00,
2013-01-01 02:22:00,39.0,-99.9,29.79,West,269,8.0,14.0,-999,-99.99,,,-99.99,,2013-01-01 07:22:00,
2013-01-01 02:32:00,39.0,-99.9,29.79,West,265,8.0,12.0,-999,-99.99,,,-99.99,,2013-01-01 07:32:00,
2013-01-01 02:43:00,40.0,-99.9,29.79,West,267,7.0,16.0,-999,-99.99,,,-99.99,,2013-01-01 07:43:00,
2013-01-01 02:53:00,40.0,-99.9,29.79,West,279,9.0,16.0,-999,-99.99,,,-99.99,,2013-01-01 07:53:00,
2013-01-01 03:02:00,40.0,-99.9,29.78,West,280,10.0,15.0,-999,-99.99,,,-99.99,,2013-01-01 08:02:00,
2013-01-01 03:12:00,40.0,-99.9,29.78,West,281,10.0,17.0,-999,-99.99,,,-99.99,,2013-01-01 08:12:00,
2013-01-01 03:22:00,40.0,-99.9,29.78,WNW,289,9.0,19.0,-999,-99.99,,,-99.99,,2013-01-01 08:22:00,
2013-01-01 03:32:00,40.0,-99.9,29.78,WNW,290,11.0,24.0,-999,-99.99,,,-99.99,,2013-01-01 08:32:00,
2013-01-01 03:42:00,40.0,-99.9,29.77,WNW,286,11.0,17.0,-999,-99.99,,,-99.99,,2013-01-01 08:42:00,
2013-01-01 03:53:00,39.0,-99.9,29.77,WNW,297,9.0,17.0,-999,-99.99,,,-99.99,,2013-01-01 08:53:00,
2013-01-01 04:02:00,39.0,-99.9,29.77,WNW,290,9.0,13.0,-999,-99.99,,,-99.99,,2013-01-01 09:02:00,
2013-01-01 04:12:00,39.0,-99.9,29.77,WNW,288,8.0,12.0,-999,-99.99,,,-99.99,,2013-01-01 09:12:00,
2013-01-01 04:22:00,39.0,-99.9,29.77,WNW,289,7.0,12.0,-999,-99.99,,,-99.99,,2013-01-01 09:22:00,
2013-01-01 04:32:00,39.0,-99.9,29.77,WNW,289,9.0,12.0,-999,-99.99,,,-99.99,,2013-01-01 09:32:00,
2013-01-01 04:42:00,39.0,-99.9,29.76,WNW,289,9.0,12.0,-999,-99.99,,,-99.99,,2013-01-01 09:42:00,
2013-01-01 04:53:00,39.0,-99.9,29.77,WNW,288,8.0,14.0,-999,-99.99,,,-99.99,,2013-01-01 09:53:00,
2013-01-01 05:02:00,39.0,-99.9,29.77,WNW,288,8.0,14.0,-999,-99.99,,,-99.99,,2013-01-01 10:02:00,
2013-01-01 05:12:00,39.0,-99.9,29.77,WNW,291,10.0,13.0,-999,-99.99,,,-99.99,,2013-01-01 10:12:00,
2013-01-01 05:22:00,39.0,-99.9,29.78,WNW,283,10.0,15.0,-999,-99.99,,,-99.99,,2013-01-01 10:22:00,
2013-01-01 05:33:00,39.0,-99.9,29.78,West,276,5.0,14.0,-999,-99.99,,,-99.99,,2013-01-01 10:33:00,
2013-01-01 05:43:00,39.0,-99.9,29.78,West,276,9.0,16.0,-999,-99.99,,,-99.99,,2013-01-01 10:43:00,
2013-01-01 05:53:00,39.0,-99.9,29.79,West,275,6.0,14.0,-999,-99.99,,,-99.99,,2013-01-01 10:53:00,
2013-01-01 06:02:00,39.0,-99.9,29.78,West,268,7.0,16.0,-999,-99.99,,,-99.99,,2013-01-01 11:02:00,
2013-01-01 06:12:00,39.0,-99.9,29.78,West,279,9.0,16.0,-999,-99.99,,,-99.99,,2013-01-01 11:12:00,
2013-01-01 06:23:00,39.0,-99.9,29.78,West,274,11.0,17.0,-999,-99.99,,,-99.99,,2013-01-01 11:23:00,
2013-01-01 06:33:00,38.0,-99.9,29.78,West,280,7.0,14.0,-999,-99.99,,,-99.99,,2013-01-01 11:33:00,
2013-01-01 06:43:00,39.0,-99.9,29.78,West,273,7.0,14.0,-999,-99.99,,,-99.99,,2013-01-01 11:43:00,
2013-01-01 06:53:00,38.0,-99.9,29.78,West,279,8.0,12.0,-999,-99.99,,,-99.99,,2013-01-01 11:53:00,
2013-01-01 07:03:00,38.0,-99.9,29.79,West,279,9.0,14.0,-999,-99.99,,,-99.99,,2013-01-01 12:03:00,
2013-01-01 07:12:00,38.0,-99.9,29.79,West,277,6.0,14.0,-999,-99.99,,,-99.99,,2013-01-01 12:12:00,
2013-01-01 07:22:00,38.0,-99.9,29.78,WNW,282,9.0,17.0,-999,-99.99,,,-99.99,,2013-01-01 12:22:00,
2013-01-01 07:33:00,39.0,-99.9,29.79,West,275,9.0,19.0,-999,-99.99,,,-99.99,,2013-01-01 12:33:00,
2013-01-01 07:43:00,39.0,-99.9,29.79,West,272,9.0,17.0,-999,-99.99,,,-99.99,,2013-01-01 12:43:00,
2013-01-01 07:53:00,39.0,-99.9,29.79,West,280,12.0,18.0,-999,-99.99,,,-99.99,,2013-01-01 12:53:00,
2013-01-01 08:03:00,39.0,-99.9,29.78,WNW,287,11.0,20.0,-999,-99.99,,,-99.99,,2013-01-01 13:03:00,
2013-01-01 08:12:00,39.0,-99.9,29.78,WNW,290,9.0,18.0,-999,-99.99,,,-99.99,,2013-01-01 13:12:00,
2013-01-01 08:22:00,39.0,-99.9,29.78,WNW,284,11.0,18.0,-999,-99.99,,,-99.99,,2013-01-01 13:22:00,
2013-01-01 08:33:00,39.0,-99.9,29.78,WNW,292,14.0,22.0,-999,-99.99,,,-99.99,,2013-01-01 13:33:00,
2013-01-01 08:43:00,39.0,-99.9,29.79,WNW,293,14.0,20.0,-999,-99.99,,,-99.99,,2013-01-01 13:43:00,
2013-01-01 08:53:00,39.0,-99.9,29.79,WNW,283,12.0,23.0,-999,-99.99,,,-99.99,,2013-01-01 13:53:00,
2013-01-01 09:03:00,39.0,-99.9,29.79,West,281,13.0,18.0,-999,-99.99,,,-99.99,,2013-01-01 14:03:00,
2013-01-01 09:12:00,39.0,-99.9,29.79,WNW,285,10.0,21.0,-999,-99.99,,,-99.99,,2013-01-01 14:12:00,
2013-01-01 09:22:00,40.0,-99.9,29.80,West,278,11.0,20.0,-999,-99.99,,,-99.99,,2013-01-01 14:22:00,
2013-01-01 09:33:00,40.0,-99.9,29.80,WNW,286,11.0,17.0,-999,-99.99,,,-99.99,,2013-01-01 14:33:00,
2013-01-01 09:43:00,40.0,-99.9,29.80,West,281,12.0,19.0,-999,-99.99,,,-99.99,,2013-01-01 14:43:00,
2013-01-01 09:53:00,40.0,-99.9,29.80,West,279,11.0,22.0,-999,-99.99,,,-99.99,,2013-01-01 14:53:00,
2013-01-01 10:03:00,40.0,-99.9,29.80,WNW,287,13.0,24.0,-999,-99.99,,,-99.99,,2013-01-01 15:03:00,
2013-01-01 10:13:00,40.0,-99.9,29.79,WNW,295,15.0,25.0,-999,-99.99,,,-99.99,,2013-01-01 15:13:00,
2013-01-01 10:22:00,40.0,-99.9,29.80,WNW,293,14.0,20.0,-999,-99.99,,,-99.99,,2013-01-01 15:22:00,
2013-01-01 10:33:00,40.0,-99.9,29.80,WNW,293,11.0,19.0,-999,-99.99,,,-99.99,,2013-01-01 15:33:00,
2013-01-01 10:43:00,40.0,-99.9,29.80,WNW,293,11.0,19.0,-999,-99.99,,,-99.99,,2013-01-01 15:43:00,
2013-01-01 10:53:00,40.0,-99.9,29.79,WNW,295,12.0,21.0,-999,-99.99,,,-99.99,,2013-01-01 15:53:00,
2013-01-01 11:02:00,40.0,-99.9,29.79,WNW,292,12.0,20.0,-999,-99.99,,,-99.99,,2013-01-01 16:02:00,
2013-01-01 11:12:00,40.0,-99.9,29.78,WNW,290,12.0,20.0,-999,-99.99,,,-99.99,,2013-01-01 16:12:00,
2013-01-01 11:23:00,40.0,-99.9,29.79,West,279,11.0,18.0,-999,-99.99,,,-99.99,,2013-01-01 16:23:00,
2013-01-01 11:33:00,40.0,-99.9,29.78,WNW,288,13.0,22.0,-999,-99.99,,,-99.99,,2013-01-01 16:33:00,
2013-01-01 11:43:00,40.0,-99.9,29.78,WNW,286,8.0,20.0,-999,-99.99,,,-99.99,,2013-01-01 16:43:00,
2013-01-01 11:53:00,40.0,-99.9,29.77,WNW,294,12.0,23.0,-999,-99.99,,,-99.99,,2013-01-01 16:53:00,
2013-01-01 12:03:00,40.0,-99.9,29.77,West,281,12.0,21.0,-999,-99.99,,,-99.99,,2013-01-01 17:03:00,
2013-01-01 12:12:00,40.0,-99.9,29.77,West,277,11.0,21.0,-999,-99.99,,,-99.99,,2013-01-01 17:12:00,
2013-01-01 12:23:00,39.0,-99.9,29.77,WNW,291,16.0,24.0,-999,-99.99,,,-99.99,,2013-01-01 17:23:00,
2013-01-01 12:33:00,39.0,-99.9,29.76,WNW,289,15.0,26.0,-999,-99.99,,,-99.99,,2013-01-01 17:33:00,
2013-01-01 12:43:00,39.0,-99.9,29.77,WNW,286,13.0,20.0,-999,-99.99,,,-99.99,,2013-01-01 17:43:00,
2013-01-01 12:53:00,39.0,-99.9,29.76,WNW,294,14.0,24.0,-999,-99.99,,,-99.99,,2013-01-01 17:53:00,
2013-01-01 13:03:00,38.0,-99.9,29.75,WNW,296,16.0,25.0,-999,-99.99,,,-99.99,,2013-01-01 18:03:00,
2013-01-01 13:13:00,38.0,-99.9,29.75,WNW,301,16.0,24.0,-999,-99.99,,,-99.99,,2013-01-01 18:13:00,
2013-01-01 13:23:00,38.0,-99.9,29.75,WNW,296,15.0,23.0,-999,-99.99,,,-99.99,,2013-01-01 18:23:00,
2013-01-01 13:33:00,38.0,-99.9,29.75,WNW,300,15.0,24.0,-999,-99.99,,,-99.99,,2013-01-01 18:33:00,
2013-01-01 13:43:00,38.0,-99.9,29.75,WNW,300,15.0,24.0,-999,-99.99,,,-99.99,,2013-01-01 18:43:00,
2013-01-01 13:53:00,38.0,-99.9,29.76,NW,304,13.0,22.0,-999,-99.99,,,-99.99,,2013-01-01 18:53:00,
2013-01-01 14:02:00,37.0,-99.9,29.76,NW,304,11.0,20.0,-999,-99.99,,,-99.99,,2013-01-01 19:02:00,
2013-01-01 14:12:00,37.0,-99.9,29.76,WNW,300,14.0,20.0,-999,-99.99,,,-99.99,,2013-01-01 19:12:00,
2013-01-01 14:22:00,37.0,-99.9,29.75,WNW,303,11.0,19.0,-999,-99.99,,,-99.99,,2013-01-01 19:22:00,
2013-01-01 14:33:00,37.0,-99.9,29.76,WNW,296,11.0,19.0,-999,-99.99,,,-99.99,,2013-01-01 19:33:00,
2013-01-01 14:43:00,37.0,-99.9,29.76,NW,309,11.0,19.0,-999,-99.99,,,-99.99,,2013-01-01 19:43:00,
2013-01-01 14:53:00,37.0,-99.9,29.76,NW,304,9.0,19.0,-999,-99.99,,,-99.99,,2013-01-01 19:53:00,
2013-01-01 15:02:00,37.0,-99.9,29.76,WNW,302,8.0,17.0,-999,-99.99,,,-99.99,,2013-01-01 20:02:00,
2013-01-01 15:13:00,37.0,-99.9,29.75,NW,311,10.0,17.0,-999,-99.99,,,-99.99,,2013-01-01 20:13:00,
2013-01-01 15:23:00,37.0,-99.9,29.75,NW,304,10.0,18.0,-999,-99.99,,,-99.99,,2013-01-01 20:23:00,
2013-01-01 15:32:00,37.0,-99.9,29.75,WNW,302,11.0,20.0,-999,-99.99,,,-99.99,,2013-01-01 20:32:00,
2013-01-01 15:43:00,37.0,-99.9,29.76,WNW,301,12.0,19.0,-999,-99.99,,,-99.99,,2013-01-01 20:43:00,
2013-01-01 15:53:00,36.0,-99.9,29.77,WNW,302,11.0,18.0,-999,-99.99,,,-99.99,,2013-01-01 20:53:00,
2013-01-01 16:03:00,36.0,-99.9,29.76,WNW,295,7.0,21.0,-999,-99.99,,,-99.99,,2013-01-01 21:03:00,
2013-01-01 16:13:00,36.0,-99.9,29.76,WNW,300,12.0,17.0,-999,-99.99,,,-99.99,,2013-01-01 21:13:00,
2013-01-01 16:22:00,36.0,-99.9,29.76,WNW,303,12.0,19.0,-999,-99.99,,,-99.99,,2013-01-01 21:22:00,
2013-01-01 16:33:00,36.0,-99.9,29.76,WNW,300,13.0,22.0,-999,-99.99,,,-99.99,,2013-01-01 21:33:00,
2013-01-01 16:43:00,36.0,-99.9,29.76,NW,308,12.0,20.0,-999,-99.99,,,-99.99,,2013-01-01 21:43:00,
2013-01-01 16:53:00,36.0,-99.9,29.77,WNW,301,14.0,23.0,-999,-99.99,,,-99.99,,2013-01-01 21:53:00,
2013-01-01 17:03:00,36.0,-99.9,29.78,WNW,303,10.0,18.0,-999,-99.99,,,-99.99,,2013-01-01 22:03:00,
2013-01-01 17:13:00,36.0,-99.9,29.78,WNW,298,11.0,18.0,-999,-99.99,,,-99.99,,2013-01-01 22:13:00,
2013-01-01 17:23:00,36.0,-99.9,29.80,WNW,300,9.0,15.0,-999,-99.99,,,-99.99,,2013-01-01 22:23:00,
2013-01-01 17:33:00,35.0,-99.9,29.80,NW,307,15.0,21.0,-999,-99.99,,,-99.99,,2013-01-01 22:33:00,
2013-01-01 17:43:00,35.0,-99.9,29.79,WNW,300,14.0,19.0,-999,-99.99,,,-99.99,,2013-01-01 22:43:00,
2013-01-01 17:53:00,35.0,-99.9,29.80,WNW,297,13.0,19.0,-999,-99.99,,,-99.99,,2013-01-01 22:53:00,
2013-01-01 18:03:00,35.0,-99.9,29.81,NW,306,12.0,24.0,-999,-99.99,,,-99.99,,2013-01-01 23:03:00,
2013-01-01 18:13:00,35.0,-99.9,29.81,NW,310,12.0,26.0,-999,-99.99,,,-99.99,,2013-01-01 23:13:00,
2013-01-01 18:22:00,34.0,-99.9,29.80,NW,307,13.0,21.0,-999,-99.99,,,-99.99,,2013-01-01 23:22:00,
2013-01-01 18:33:00,34.0,-99.9,29.81,NW,315,12.0,24.0,-999,-99.99,,,-99.99,,2013-01-01 23:33:00,
2013-01-01 18:42:00,34.0,-99.9,29.81,NW,308,14.0,21.0,-999,-99.99,,,-99.99,,2013-01-01 23:42:00,
2013-01-01 18:53:00,34.0,-99.9,29.83,NW,308,16.0,25.0,-999,-99.99,,,-99.99,,2013-01-01 23:53:00,
2013-01-01 19:03:00,34.0,-99.9,29.84,WNW,303,12.0,26.0,-999,-99.99,,,-99.99,,2013-01-02 00:03:00,
2013-01-01 19:12:00,33.0,-99.9,29.83,NW,306,16.0,22.0,-999,-99.99,,,-99.99,,2013-01-02 00:12:00,
2013-01-01 19:22:00,33.0,-99.9,29.83,NW,315,14.0,22.0,-999,-99.99,,,-99.99,,2013-01-02 00:22:00,
2013-01-01 19:33:00,33.0,-99.9,29.84,WNW,299,11.0,25.0,-999,-99.99,,,-99.99,,2013-01-02 00:33:00,
2013-01-01 19:43:00,33.0,-99.9,29.84,NW,305,14.0,24.0,-999,-99.99,,,-99.99,,2013-01-02 00:43:00,
2013-01-01 19:53:00,32.0,-99.9,29.84,NW,304,9.0,26.0,-999,-99.99,,,-99.99,,2013-01-02 00:53:00,
2013-01-01 20:02:00,32.0,-99.9,29.84,WNW,302,13.0,26.0,-999,-99.99,,,-99.99,,2013-01-02 01:02:00,
2013-01-01 20:12:00,-999.0,-99.9,29.85,WNW,303,16.0,28.0,-999,-99.99,,,-99.99,,2013-01-02 01:12:00,
2013-01-01 20:22:00,-999.0,-99.9,29.85,NW,318,15.0,23.0,-999,-99.99,,,-99.99,,2013-01-02 01:22:00,
2013-01-01 20:33:00,-999.0,-99.9,29.86,NW,317,14.0,21.0,-999,-99.99,,,-99.99,,2013-01-02 01:33:00,
2013-01-01 20:42:00,32.0,-99.9,29.86,NW,325,15.0,26.0,-999,-99.99,,,-99.99,,2013-01-02 01:42:00,
2013-01-01 20:53:00,-999.0,-99.9,29.87,NW,324,15.0,25.0,-999,-99.99,,,-99.99,,2013-01-02 01:53:00,
2013-01-01 21:02:00,-999.0,-99.9,29.87,NW,317,13.0,23.0,-999,-99.99,,,-99.99,,2013-01-02 02:02:00,
2013-01-01 21:12:00,31.0,-99.9,29.86,NW,325,14.0,21.0,-999,-99.99,,,-99.99,,2013-01-02 02:12:00,
2013-01-01 21:22:00,-999.0,-99.9,29.87,NW,312,13.0,21.0,-999,-99.99,,,-99.99,,2013-01-02 02:22:00,
2013-01-01 21:33:00,-999.0,-99.9,29.87,NW,314,13.0,20.0,-999,-99.99,,,-99.99,,2013-01-02 02:33:00,
2013-01-01 21:43:00,-999.0,-99.9,29.87,NW,318,13.0,21.0,-999,-99.99,,,-99.99,,2013-01-02 02:43:00,
2013-01-01 21:53:00,-999.0,-99.9,29.88,NW,313,14.0,22.0,-999,-99.99,,,-99.99,,2013-01-02 02:53:00,
2013-01-01 22:02:00,-999.0,-99.9,29.87,NW,314,11.0,22.0,-999,-99.99,,,-99.99,,2013-01-02 03:02:00,
2013-01-01 22:12:00,30.0,-99.9,29.87,NW,311,12.0,18.0,-999,-99.99,,,-99.99,,2013-01-02 03:12:00,
2013-01-01 22:22:00,-999.0,-99.9,29.88,NW,310,10.0,18.0,-999,-99.99,,,-99.99,,2013-01-02 03:22:00,
2013-01-01 22:32:00,-999.0,-99.9,29.88,NW,323,10.0,19.0,-999,-99.99,,,-99.99,,2013-01-02 03:32:00,
2013-01-01 22:42:00,29.0,-99.9,29.89,NW,321,14.0,20.0,-999,-99.99,,,-99.99,,2013-01-02 03:42:00,
2013-01-01 22:53:00,-999.0,-99.9,29.88,NW,307,13.0,21.0,-999,-99.99,,,-99.99,,2013-01-02 03:53:00,
2013-01-01 23:03:00,-999.0,-99.9,29.89,NW,316,12.0,19.0,-999,-99.99,,,-99.99,,2013-01-02 04:03:00,
2013-01-01 23:12:00,-999.0,-99.9,29.89,NW,309,12.0,20.0,-999,-99.99,,,-99.99,,2013-01-02 04:12:00,
2013-01-01 23:22:00,-999.0,-99.9,29.90,NW,316,11.0,19.0,-999,-99.99,,,-99.99,,2013-01-02 04:22:00,
2013-01-01 23:33:00,-999.0,-99.9,29.89,NW,318,12.0,19.0,-999,-99.99,,,-99.99,,2013-01-02 04:33:00,
2013-01-01 23:42:00,29.0,-99.9,29.90,NW,308,12.0,18.0,-999,-99.99,,,-99.99,,2013-01-02 04:42:00,
2013-01-01 23:53:00,-999.0,-99.9,29.91,NW,319,9.0,21.0,-999,-99.99,,,-99.99,,2013-01-02 04:53:00,